User: anonymous   Login
Location: Albany
(35.0000°S, 118.0000°E)
Time: 13:08:29
(UTC-05:00)
Language:

SJ-6B - Orbit

View from above orbital plane
View from above orbital plane
View from above satellite
View from above satellite

Ground track
Ground track

The orbit data is extracted from the following two-line orbital elements,

1 28415U 04035C   17056.14177353  .00000873  00000-0  62420-4 0  9998
2 28415  97.7583  84.6610 0053538 140.3295 220.1867 15.06071451681713
Epoch (UTC): 25 February 2017 03:24:09
Eccentricity: 0.0053538
inclination: 97.7583°
perigee height: 511 km
apogee height: 585 km
right ascension of ascending node: 84.6610°
argument of perigee: 140.3295°
revolutions per day: 15.06071451
mean anomaly at epoch: 220.1867°
orbit number at epoch: 68171

The dashed part of the orbit path shows where the satellite is in the earth's shadow,  

DLR